JST712 YMHB-YMML

Flight info

Callsign JST712
Flight time 0h 56m
Altitude 36000
Route TASUM H111 LT H215 RAZZI W687 ML
Aircraft A320/M-SDE3FGHIRWY/LB1

Departure

Time 2026-04-21 11:43
Airport Hobart International Airport (YMHB)

Arrival

Time 2026-04-21 12:39
Airport Melbourne Airport (YMML)
Time Latitude Longitude Altitude Speed Heading
2026-04-21 11:25 -42.83684 147.50623 12 ft 0 kts 225°
2026-04-21 11:36 -42.83672 147.50639 24 ft 4 kts 219°
2026-04-21 11:36 -42.83650 147.50658 23 ft 4 kts 193°
2026-04-21 11:36 -42.83628 147.50656 23 ft 2 kts 136°
2026-04-21 11:36 -42.83627 147.50655 23 ft 0 kts 135°
2026-04-21 11:39 -42.83645 147.50678 23 ft 7 kts 135°
2026-04-21 11:39 -42.83688 147.50736 22 ft 10 kts 134°
2026-04-21 11:39 -42.83683 147.50828 22 ft 12 kts 52°
2026-04-21 11:39 -42.83707 147.50932 22 ft 14 kts 135°
2026-04-21 11:40 -42.83784 147.51037 22 ft 17 kts 135°
2026-04-21 11:40 -42.83862 147.51159 22 ft 16 kts 105°
2026-04-21 11:40 -42.83817 147.51258 23 ft 0 kts 45°
2026-04-21 11:40 -42.83817 147.51259 23 ft 0 kts 45°
2026-04-21 11:41 -42.83803 147.51277 24 ft 7 kts 45°
2026-04-21 11:41 -42.83755 147.51342 23 ft 3 kts 45°
2026-04-21 11:42 -42.83732 147.51334 22 ft 5 kts 331°
2026-04-21 11:42 -42.83718 147.51318 25 ft 3 kts 316°
2026-04-21 11:42 -42.83514 147.51043 24 ft 89 kts 315°
2026-04-21 11:42 -42.82889 147.50186 62 ft 158 kts 317°
2026-04-21 11:43 -42.82103 147.49088 839 ft 165 kts 319°
2026-04-21 11:43 -42.81266 147.47981 1804 ft 168 kts 320°
2026-04-21 11:43 -42.80452 147.46883 2544 ft 167 kts 320°
2026-04-21 11:43 -42.79574 147.45708 2860 ft 189 kts 319°
2026-04-21 11:44 -42.78577 147.44360 3198 ft 214 kts 318°
2026-04-21 11:44 -42.77456 147.42848 3659 ft 238 kts 321°
2026-04-21 11:44 -42.76537 147.42006 4088 ft 244 kts 338°
2026-04-21 11:44 -42.74276 147.41480 5305 ft 251 kts 356°
2026-04-21 11:45 -42.73115 147.41371 5914 ft 254 kts 356°
2026-04-21 11:45 -42.71337 147.41220 6823 ft 259 kts 356°
2026-04-21 11:45 -42.69522 147.41067 7680 ft 264 kts 356°
2026-04-21 11:45 -42.67673 147.40910 8521 ft 269 kts 356°
2026-04-21 11:46 -42.65787 147.40746 9365 ft 274 kts 356°
2026-04-21 11:46 -42.63864 147.40576 10180 ft 281 kts 356°
2026-04-21 11:46 -42.61856 147.40406 10641 ft 298 kts 356°
2026-04-21 11:46 -42.59712 147.40225 11005 ft 317 kts 356°
2026-04-21 11:47 -42.57489 147.40035 11665 ft 323 kts 356°
2026-04-21 11:47 -42.55235 147.39840 12418 ft 326 kts 356°
2026-04-21 11:47 -42.52950 147.39643 13180 ft 330 kts 356°
2026-04-21 11:47 -42.50652 147.39444 13935 ft 333 kts 356°
2026-04-21 11:48 -42.48323 147.39246 14615 ft 337 kts 356°
2026-04-21 11:48 -42.45971 147.39043 15236 ft 341 kts 356°
2026-04-21 11:48 -42.43593 147.38833 15838 ft 345 kts 356°
2026-04-21 11:48 -42.41182 147.38624 16435 ft 349 kts 356°
2026-04-21 11:49 -42.38746 147.38416 17042 ft 353 kts 356°
2026-04-21 11:49 -42.36282 147.38207 17652 ft 357 kts 356°
2026-04-21 11:49 -42.33792 147.37995 18283 ft 360 kts 356°
2026-04-21 11:49 -42.31274 147.37778 18875 ft 364 kts 356°
2026-04-21 11:50 -42.28732 147.37554 19414 ft 368 kts 356°
2026-04-21 11:50 -42.26159 147.37327 19953 ft 372 kts 356°
2026-04-21 11:50 -42.23563 147.37101 20484 ft 376 kts 356°
2026-04-21 11:50 -42.20935 147.36876 21011 ft 380 kts 356°
2026-04-21 11:51 -42.18291 147.36532 21517 ft 384 kts 350°
2026-04-21 11:51 -42.15650 147.35900 22007 ft 388 kts 349°
2026-04-21 11:51 -42.12983 147.35256 22488 ft 392 kts 349°
2026-04-21 11:51 -42.10288 147.34605 22961 ft 395 kts 349°
2026-04-21 11:52 -42.07566 147.33948 23441 ft 399 kts 349°
2026-04-21 11:52 -42.04812 147.33287 23924 ft 403 kts 349°
2026-04-21 11:52 -42.02040 147.32624 24334 ft 407 kts 349°
2026-04-21 11:52 -41.99240 147.31956 24739 ft 410 kts 349°
2026-04-21 11:53 -41.96416 147.31283 25127 ft 414 kts 349°
2026-04-21 11:53 -41.93570 147.30607 25533 ft 417 kts 349°
2026-04-21 11:53 -41.90705 147.29927 25941 ft 419 kts 349°
2026-04-21 11:53 -41.87827 147.29244 26360 ft 422 kts 349°
2026-04-21 11:54 -41.84931 147.28560 26780 ft 424 kts 349°
2026-04-21 11:54 -41.82012 147.27870 27178 ft 427 kts 349°
2026-04-21 11:54 -41.79072 147.27173 27581 ft 430 kts 349°
2026-04-21 11:54 -41.76118 147.26471 27951 ft 433 kts 349°
2026-04-21 11:55 -41.73138 147.25763 28330 ft 436 kts 349°
2026-04-21 11:55 -41.70142 147.25052 28709 ft 439 kts 349°
2026-04-21 11:55 -41.67125 147.24335 29082 ft 442 kts 349°
2026-04-21 11:55 -41.64089 147.23615 29460 ft 445 kts 349°
2026-04-21 11:56 -41.61035 147.22892 29841 ft 448 kts 349°
2026-04-21 11:56 -41.57958 147.22165 30226 ft 451 kts 349°
2026-04-21 11:56 -41.54874 147.21342 30581 ft 453 kts 343°
2026-04-21 11:56 -41.51933 147.20005 30897 ft 454 kts 336°
2026-04-21 11:57 -41.48965 147.18380 31233 ft 456 kts 336°
2026-04-21 11:57 -41.46019 147.16772 31565 ft 458 kts 336°
2026-04-21 11:57 -41.43054 147.15161 31908 ft 460 kts 336°
2026-04-21 11:57 -41.40094 147.13557 32390 ft 458 kts 336°
2026-04-21 11:58 -41.37145 147.11963 32889 ft 457 kts 336°
2026-04-21 11:58 -41.34210 147.10374 33381 ft 455 kts 336°
2026-04-21 11:58 -41.31275 147.08785 33871 ft 454 kts 336°
2026-04-21 11:58 -41.28356 147.07208 34359 ft 453 kts 336°
2026-04-21 11:59 -41.25446 147.05638 34792 ft 451 kts 336°
2026-04-21 11:59 -41.22571 147.04091 35193 ft 450 kts 336°
2026-04-21 11:59 -41.19671 147.02533 35582 ft 449 kts 336°
2026-04-21 11:59 -41.16779 147.00981 35962 ft 448 kts 336°
2026-04-21 12:00 -41.13892 146.99434 36314 ft 448 kts 336°
2026-04-21 12:00 -41.11007 146.97883 36416 ft 446 kts 336°
2026-04-21 12:00 -41.05271 146.94795 36436 ft 444 kts 336°
2026-04-21 12:01 -40.99559 146.91732 36434 ft 443 kts 336°
2026-04-21 12:01 -40.93840 146.88680 36428 ft 443 kts 336°
2026-04-21 12:02 -40.85262 146.84107 36423 ft 443 kts 335°
2026-04-21 12:03 -40.79537 146.81055 36419 ft 443 kts 336°
2026-04-21 12:03 -40.73803 146.78024 36422 ft 444 kts 336°
2026-04-21 12:04 -40.68099 146.75004 36420 ft 444 kts 335°
2026-04-21 12:04 -40.62368 146.71965 36421 ft 444 kts 336°
2026-04-21 12:05 -40.56628 146.68936 36435 ft 444 kts 336°
2026-04-21 12:05 -40.50880 146.65913 36419 ft 444 kts 335°
2026-04-21 12:06 -40.45142 146.62886 36413 ft 444 kts 335°
2026-04-21 12:06 -40.39396 146.59866 36421 ft 444 kts 336°
2026-04-21 12:07 -40.33652 146.56861 36407 ft 444 kts 336°
2026-04-21 12:07 -40.27912 146.53859 36402 ft 444 kts 336°
2026-04-21 12:08 -40.22203 146.50878 36406 ft 444 kts 335°
2026-04-21 12:08 -40.16458 146.47888 36397 ft 444 kts 335°
2026-04-21 12:09 -40.10716 146.44904 36393 ft 444 kts 336°
2026-04-21 12:09 -40.04960 146.41914 36398 ft 444 kts 335°
2026-04-21 12:10 -39.99214 146.38939 36394 ft 444 kts 336°
2026-04-21 12:10 -39.93458 146.35969 36392 ft 444 kts 336°
2026-04-21 12:11 -39.87700 146.33007 36389 ft 444 kts 335°
2026-04-21 12:11 -39.81985 146.30070 36378 ft 444 kts 335°
2026-04-21 12:12 -39.76228 146.27125 36384 ft 444 kts 335°
2026-04-21 12:12 -39.70471 146.24186 36383 ft 444 kts 335°
2026-04-21 12:13 -39.64720 146.21244 36376 ft 444 kts 335°
2026-04-21 12:13 -39.58962 146.18312 36374 ft 445 kts 335°
2026-04-21 12:14 -39.53204 146.15384 36372 ft 445 kts 335°
2026-04-21 12:14 -39.47447 146.12459 36363 ft 445 kts 335°
2026-04-21 12:15 -39.41686 146.09531 36345 ft 445 kts 335°
2026-04-21 12:15 -39.38799 146.08064 35907 ft 446 kts 336°
2026-04-21 12:15 -39.35922 146.06609 35445 ft 443 kts 336°
2026-04-21 12:15 -39.33058 146.05166 34981 ft 441 kts 336°
2026-04-21 12:16 -39.30203 146.03734 34505 ft 439 kts 336°
2026-04-21 12:16 -39.27365 146.02313 33990 ft 437 kts 336°
2026-04-21 12:16 -39.24539 146.00896 33521 ft 434 kts 336°
2026-04-21 12:16 -39.21736 145.99487 33043 ft 430 kts 336°
2026-04-21 12:17 -39.18961 145.98091 32575 ft 427 kts 336°
2026-04-21 12:17 -39.16194 145.96697 32113 ft 424 kts 336°
2026-04-21 12:17 -39.13456 145.95315 31657 ft 422 kts 336°
2026-04-21 12:17 -39.10737 145.93944 31216 ft 419 kts 336°
2026-04-21 12:18 -39.08020 145.92581 30776 ft 417 kts 336°
2026-04-21 12:18 -39.05326 145.91233 30331 ft 415 kts 336°
2026-04-21 12:18 -39.02647 145.89893 29877 ft 411 kts 336°
2026-04-21 12:18 -38.99992 145.88563 29466 ft 407 kts 336°
2026-04-21 12:19 -38.97363 145.87247 29068 ft 404 kts 336°
2026-04-21 12:19 -38.94758 145.85947 28669 ft 401 kts 337°
2026-04-21 12:19 -38.92168 145.84660 28262 ft 398 kts 337°
2026-04-21 12:19 -38.89596 145.83382 27871 ft 395 kts 337°
2026-04-21 12:20 -38.87650 145.82413 27568 ft 393 kts 336°
2026-04-21 12:20 -38.85107 145.81137 27155 ft 390 kts 337°
2026-04-21 12:20 -38.82585 145.79874 26753 ft 388 kts 337°
2026-04-21 12:20 -38.80110 145.78641 26344 ft 386 kts 337°
2026-04-21 12:21 -38.77608 145.77401 25927 ft 384 kts 337°
2026-04-21 12:21 -38.75116 145.76170 25505 ft 383 kts 337°
2026-04-21 12:21 -38.72637 145.74942 25070 ft 381 kts 337°
2026-04-21 12:21 -38.70163 145.73719 24646 ft 380 kts 338°
2026-04-21 12:22 -38.67696 145.72502 24189 ft 380 kts 338°
2026-04-21 12:22 -38.65236 145.71286 23728 ft 379 kts 338°
2026-04-21 12:22 -38.62783 145.70071 23269 ft 376 kts 338°
2026-04-21 12:22 -38.60351 145.68869 22829 ft 373 kts 338°
2026-04-21 12:23 -38.57933 145.67679 22389 ft 370 kts 338°
2026-04-21 12:23 -38.55531 145.66496 21957 ft 368 kts 338°
2026-04-21 12:23 -38.53184 145.65339 21530 ft 366 kts 338°
2026-04-21 12:23 -38.50813 145.64171 21098 ft 364 kts 338°
2026-04-21 12:24 -38.48454 145.63009 20669 ft 362 kts 338°
2026-04-21 12:24 -38.46170 145.61709 20233 ft 359 kts 330°
2026-04-21 12:24 -38.43975 145.60193 19812 ft 357 kts 330°
2026-04-21 12:24 -38.41790 145.58684 19391 ft 356 kts 330°
2026-04-21 12:25 -38.39620 145.57183 18953 ft 354 kts 330°
2026-04-21 12:25 -38.37451 145.55686 18519 ft 353 kts 330°
2026-04-21 12:25 -38.35321 145.54216 18074 ft 351 kts 330°
2026-04-21 12:25 -38.33170 145.52733 17656 ft 348 kts 330°
2026-04-21 12:26 -38.31045 145.51271 17233 ft 346 kts 330°
2026-04-21 12:26 -38.28936 145.49825 16819 ft 344 kts 330°
2026-04-21 12:26 -38.26832 145.48383 16411 ft 342 kts 330°
2026-04-21 12:26 -38.24746 145.46953 16003 ft 340 kts 330°
2026-04-21 12:27 -38.22669 145.45529 15598 ft 338 kts 330°
2026-04-21 12:27 -38.20600 145.44110 15198 ft 337 kts 330°
2026-04-21 12:27 -38.18544 145.42697 14791 ft 336 kts 331°
2026-04-21 12:27 -38.16493 145.41292 14390 ft 335 kts 331°
2026-04-21 12:28 -38.14438 145.39890 13970 ft 334 kts 331°
2026-04-21 12:28 -38.12419 145.38515 13553 ft 332 kts 331°
2026-04-21 12:28 -38.10395 145.37131 13147 ft 330 kts 331°
2026-04-21 12:28 -38.08378 145.35753 12751 ft 327 kts 331°
2026-04-21 12:29 -38.07049 145.34846 12483 ft 326 kts 331°
2026-04-21 12:29 -38.05050 145.33484 12092 ft 324 kts 331°
2026-04-21 12:29 -38.03063 145.32128 11690 ft 323 kts 331°
2026-04-21 12:29 -38.01092 145.30784 11288 ft 321 kts 330°
2026-04-21 12:30 -37.99130 145.29427 10881 ft 320 kts 330°
2026-04-21 12:30 -37.97191 145.28067 10518 ft 318 kts 330°
2026-04-21 12:30 -37.95261 145.26706 10237 ft 314 kts 330°
2026-04-21 12:30 -37.93394 145.25390 9953 ft 302 kts 330°
2026-04-21 12:31 -37.90962 145.23681 9177 ft 294 kts 330°
2026-04-21 12:31 -37.89777 145.22850 8803 ft 291 kts 330°
2026-04-21 12:31 -37.88024 145.21628 8299 ft 284 kts 330°
2026-04-21 12:31 -37.86356 145.20383 7929 ft 272 kts 322°
2026-04-21 12:32 -37.85045 145.18740 7591 ft 261 kts 306°
2026-04-21 12:32 -37.84181 145.16781 7318 ft 249 kts 290°
2026-04-21 12:32 -37.83737 145.14681 7237 ft 251 kts 282°
2026-04-21 12:32 -37.83364 145.12515 7123 ft 252 kts 282°
2026-04-21 12:33 -37.82988 145.10351 6966 ft 254 kts 282°
2026-04-21 12:33 -37.82598 145.08121 6549 ft 259 kts 282°
2026-04-21 12:33 -37.82216 145.05935 6190 ft 252 kts 282°
2026-04-21 12:33 -37.81840 145.03785 5673 ft 250 kts 283°
2026-04-21 12:34 -37.81507 145.01634 5143 ft 249 kts 275°
2026-04-21 12:34 -37.81605 144.99460 4606 ft 248 kts 258°
2026-04-21 12:34 -37.81984 144.97334 4066 ft 248 kts 258°
2026-04-21 12:34 -37.82352 144.95254 3539 ft 247 kts 258°
2026-04-21 12:35 -37.82697 144.93137 3297 ft 233 kts 261°
2026-04-21 12:35 -37.82949 144.91207 3244 ft 212 kts 263°
2026-04-21 12:35 -37.83156 144.89433 3191 ft 199 kts 266°
2026-04-21 12:35 -37.82907 144.87770 3140 ft 193 kts 303°
2026-04-21 12:36 -37.81945 144.86674 3017 ft 190 kts 340°
2026-04-21 12:36 -37.80636 144.86348 2784 ft 190 kts 352°
2026-04-21 12:36 -37.79327 144.86113 2517 ft 191 kts 352°
2026-04-21 12:36 -37.78038 144.85874 2247 ft 187 kts 352°
2026-04-21 12:37 -37.76776 144.85637 2012 ft 177 kts 351°
2026-04-21 12:37 -37.75610 144.85419 1765 ft 161 kts 352°
2026-04-21 12:37 -37.74555 144.85222 1530 ft 146 kts 352°
2026-04-21 12:37 -37.73583 144.85038 1350 ft 138 kts 352°
2026-04-21 12:38 -37.72647 144.84862 1170 ft 135 kts 353°
2026-04-21 12:38 -37.71721 144.84691 993 ft 133 kts 353°
2026-04-21 12:38 -37.70803 144.84516 835 ft 133 kts 352°
2026-04-21 12:38 -37.69891 144.84344 649 ft 133 kts 353°
2026-04-21 12:39 -37.68981 144.84166 484 ft 131 kts 352°
2026-04-21 12:39 -37.68089 144.84009 358 ft 126 kts 353°
2026-04-21 12:39 -37.67345 144.83870 372 ft 85 kts 351°
2026-04-21 12:39 -37.66930 144.83793 389 ft 36 kts 352°
2026-04-21 12:40 -37.66690 144.83749 395 ft 27 kts 350°
2026-04-21 12:40 -37.66567 144.83752 400 ft 16 kts 25°
2026-04-21 12:40 -37.66511 144.83859 404 ft 10 kts 84°
2026-04-21 12:40 -37.66511 144.83875 404 ft 2 kts 87°
2026-04-21 12:41 -37.66510 144.83890 404 ft 0 kts 86°
2026-04-21 12:41 -37.66510 144.83901 404 ft 3 kts 93°
2026-04-21 12:41 -37.66554 144.83936 402 ft 12 kts 169°
2026-04-21 12:41 -37.66655 144.83959 398 ft 18 kts 171°
2026-04-21 12:42 -37.66797 144.83984 392 ft 23 kts 173°
2026-04-21 12:42 -37.66956 144.84012 386 ft 20 kts 172°
2026-04-21 12:42 -37.67072 144.84059 383 ft 18 kts 129°
2026-04-21 12:42 -37.67070 144.84216 384 ft 17 kts 98°
2026-04-21 12:43 -37.67166 144.84262 382 ft 8 kts 171°
2026-04-21 12:43 -37.67226 144.84274 381 ft 11 kts 170°
2026-04-21 12:43 -37.67307 144.84291 380 ft 14 kts 172°
2026-04-21 12:43 -37.67383 144.84303 378 ft 6 kts 173°
2026-04-21 12:44 -37.67397 144.84306 378 ft 4 kts 172°
2026-04-21 12:44 -37.67444 144.84314 377 ft 9 kts 172°
2026-04-21 12:44 -37.67501 144.84329 375 ft 3 kts 144°
2026-04-21 12:44 -37.67497 144.84356 376 ft 4 kts 63°
2026-04-21 12:45 -37.67476 144.84401 377 ft 7 kts 66°
2026-04-21 12:45 -37.67467 144.84469 378 ft 8 kts 82°
2026-04-21 12:45 -37.67457 144.84547 379 ft 10 kts 81°
2026-04-21 12:45 -37.67445 144.84638 381 ft 11 kts 81°
2026-04-21 12:46 -37.67438 144.84710 382 ft 3 kts 83°
2026-04-21 12:46 -37.67451 144.84727 381 ft 4 kts 158°
2026-04-21 12:46 -37.67497 144.84736 380 ft 8 kts 171°
2026-04-21 12:46 -37.67516 144.84740 380 ft 2 kts 171°
2026-04-21 12:47 -37.67525 144.84742 379 ft 1 kts 171°